Regional Weather Roundup
Issued by NWS

Home | Current Version | Previous Version | Graphics & Text | Print | Product List | Glossary On
Versions: 1 2 3 4 5 6 7 8 9 10 11 12 13 14 15 16 17 18 19 20 21 22 23 24 25 26 27 28 29 30 31 32 33 34 35 36 37 38 39 40 41 42 43 44 45 46 47 48 49 50
864
ASUS43 KFSD 250310
RWRSD

WEATHER ROUNDUP FOR SOUTH DAKOTA
NATIONAL WEATHER SERVICE SIOUX FALLS SD
1000 PM CDT SUN JUL 24 2016

NOTE: "FAIR" INDICATES FEW OR NO CLOUDS BELOW 12,000 FEET WITH NO
SIGNIFICANT WEATHER AND/OR OBSTRUCTIONS TO VISIBILITY.


SDZ001>005-009-010-012>017-250400-
NORTHWEST AND NORTH CENTRAL SOUTH DAKOTA

CITY           SKY/WX    TMP DP  RH WIND       PRES   REMARKS
BUFFALO          N/A     78  45  30 SE15      29.99R
FAITH            N/A     75  44  33 SE12      30.07R
MOBRIDGE       CLEAR     74  56  53 E7        30.03R
$$

SDZ012>016-024>037-041>051-057-063-072>074-250400-
SOUTHWEST AND SOUTH CENTRAL SOUTH DAKOTA

CITY           SKY/WX    TMP DP  RH WIND       PRES   REMARKS
RAPID CTY ARPT CLEAR     71  51  49 SE5       30.09R
PIERRE         CLEAR     75  46  35 CALM      30.05R
CUSTER         CLEAR     69  45  41 E10       30.25R
ELLSWORTH AFB  CLEAR     75  51  42 SE9       30.09R
PHILIP         CLEAR     70  56  61 E7        30.06R
PINE RIDGE     PTCLDY    75  50  41 SE12      30.13R
WINNER         FAIR      73  51  46 SE10      30.11R
$$

SDZ004>011-016>023-039-040-250400-
NORTHEAST SOUTH DAKOTA

CITY           SKY/WX    TMP DP  RH WIND       PRES   REMARKS
ABERDEEN       CLEAR     68  60  75 S3        30.04R
WATERTOWN      CLEAR     72  59  63 NW3       30.06R
BROOKINGS      CLEAR     70  64  81 W5        30.06R
SISSETON         N/A     69  59  70 W5        30.00R
$$

SDZ017-020-022-023-036>040-048>070-250400-
SOUTHEAST SOUTH DAKOTA

CITY           SKY/WX    TMP DP  RH WIND       PRES   REMARKS
SIOUX FALLS    PTCLDY    71  64  78 W3        30.07R
HURON          CLEAR     73  59  61 CALM      30.05R
CHAMBERLAIN    CLEAR     71  56  59 S5        30.08R
MITCHELL       CLEAR     73  61  65 SW5       30.07R
YANKTON        CLEAR     72  61  68 CALM      30.07R
$$

ABBREVIATIONS USED IN REMARKS
   TC - TEMPERATURE IN CELSIUS
  WCI - WIND CHILL INDEX
   HX - HEAT INDEX
  VSB - VISIBILITY





USA.gov is the U.S. government's official web portal to all federal, state and local government web resources and services.